Regional Weather Roundup
Issued by NWS Jackson, KY

Home | Current Version | Previous Version | Text Only | Print | Product List | Glossary On
Versions: 1 2 3 4 5 6 7 8 9 10 11 12 13 14 15 16 17 18 19 20 21 22 23 24 25 26 27
000
ASUS43 KJKL 271110
RWRJKL

EAST KENTUCKY HOURLY WEATHER ROUNDUP
NATIONAL WEATHER SERVICE JACKSON KY
700 AM EDT WED JUL 27 2016

NOTE: "FAIR" INDICATES FEW OR NO CLOUDS BELOW 12,000 FEET WITH
NO SIGNIFICANT WEATHER AND/OR OBSTRUCTIONS TO VISIBILITY.

* THESE REPORTS ARE NOT UNDER NWS QUALITY CONTROL AND MAY NOT
  REPORT WEATHER SUCH AS PRECIPITATION AND FOG.

KYZ079-080-083-085-087-088-110-112-115-119-120-271200
...EASTERN KENTUCKY...

CITY           SKY/WX    TMP DP  RH WIND       PRES   REMARKS
JACKSON        MOCLDY    73  71  93 CALM      30.04R
LONDON         CLOUDY    75  72  90 SW3       30.04R
SOMERSET*      CLOUDY    73  73 100 CALM      30.05R
MONTICELLO*    LGT RAIN N/A N/A N/A MISG      30.06R
WILLIAMSBURG*  CLOUDY    72  72 100 CALM      30.05R
MIDDLESBORO*   CLEAR     72  72  99 CALM      30.07R
HARLAN APT*    CLOUDY    72  70  94 CALM      30.07R
PIKE CO APT*     N/A     72  72 100 CALM      30.06R
BIG SANDY APT* FOG       69  69 100 CALM      30.04R VSB 1/2
MOREHEAD APT*  MOSUNNY   72  70  94 CALM      30.04R
ASHLAND*       CLOUDY    72  72 100 CALM      30.00R
$$

KYZ035-036-041-042-044-050-067-078-099-271200
...CENTRAL KENTUCKY...

CITY           SKY/WX    TMP DP  RH WIND       PRES   REMARKS
MT STERLING*   MOCLDY    72  70  94 CALM      30.04R
FLEMING/MASON* FOG       70  70  99 CALM      30.03R VSB 1/2
DANVILLE*      CLEAR     72  72 100 CALM      30.04R
LEXINGTON      PTCLDY    73  70  90 CALM      30.02R
FRANKFORT      MOCLDY    72  70  93 CALM      30.01R
LOUISVILLE     PTCLDY    76  72  87 CALM      30.00R
LEBANON*         N/A     73  73 100 CALM      30.03R
GLASGOW*       PTCLDY    76  76 100 CALM      30.02R
BOWLING GREEN  CLEAR     77  75  93 SE6       30.01R FOG
$$

KYZ091>093-OHZ055-061-077-WVZ005-015-034-035-042-271200
...SOUTHERN OHIO/WEST VIRGINIA...

CITY           SKY/WX    TMP DP  RH WIND       PRES   REMARKS
COVINGTON      MOCLDY    74  73  97 CALM      30.02R FOG
COLUMBUS       MOCLDY    73  63  70 E5        30.00S
DAYTON         MOCLDY    69  68  96 NW6       30.03R
WILMINGTON     FOG       71  71 100 CALM      30.02R VSB 1/2
HUNTINGTON     FOG       72  70  93 SE3       30.02R VSB<1/4
CHARLESTON     FOG       72  70  93 SE3       30.03R VSB 1
PINEVILLE*       N/A     70  67  90 MISG      30.13R FOG
BECKLEY          N/A     69  66  90 CALM      30.11R
BLUEFIELD        N/A     70  68  93 W6        30.14R
LOGAN CO APT*  FOG       72  72 100 CALM      30.05R VSB<1/4
$$

VAZ002-007-008-TNZ017-027-036-066-071-271200
...SOUTHWEST VIRGINIA/EAST TENNESSEE...

CITY           SKY/WX    TMP DP  RH WIND       PRES   REMARKS
WISE*          CLOUDY    72  70  94 CALM      30.15R
JONESVILLE*      N/A     73  72  94 CALM      30.09R
ABINGDON*      MOCLDY    72  71  97 CALM      30.11R
BRISTOL        CLOUDY    72  70  93 SW3       30.08R
MORRISTOWN*    CLOUDY    75  72  88 CALM      30.06R
SEVIERVILLE*   SUNNY     72  70  94 CALM      30.05R
KNOXVILLE      PTCLDY    75  72  90 CALM      30.04R
OAK RIDGE      CLEAR     77  71  82 VRB3      30.06R
CROSSVILLE     CLEAR     72  69  90 W3        30.10R
NASHVILLE      PTCLDY    74  71  91 SE3       30.01R
$$

...KEY TO REMARKS...
VSB - VISIBILITY IN MILES
WCI - WIND CHILL INDEX
HX  - HEAT INDEX

$$




USA.gov is the U.S. government's official web portal to all federal, state and local government web resources and services.